Flag for Norway Weather past 2 weeks in Sandnessjøen, Norway

Now
50 °F

Drizzle. Broken clouds.


Feels Like: 47 °F
Forecast: 51 / 54 °F
Wind: 8 mph from West

Location: Sandnessjoen / Stokka

Current Time: Jul 30, 2015 at 9:18:23 PM

Latest Report: Jul 30, 2015 at 8:50 PM


Visibility: 5 mi

Pressure: 29.56 "Hg

Humidity: 94%

Dew point: 48 °F

Location of SandnessjøenLocation

Historic Weather in Sandnessjøen — Graph

°F

Sandnessjøen temperature yesterday

Maximum temperature yesterday: 61 °F (at 3:50 PM)
Minimum temperature yesterday: 50 °F (at 4:50 AM)
Average temperature yesterday: 58 °F

Past Weeks' High & Low Weather Summary

 TemperatureHumidityPressure
High64 °F (Jul 22, 12:50 PM)100% (Jul 29, 4:50 AM)29.98 "Hg (Jul 29, 4:50 AM)
Low48 °F (Jul 16, 4:50 AM)55% (Jul 18, 8:50 AM)29.24 "Hg (Jul 27, 8:20 AM)
Average54 °F81%29.67 "Hg
* Reported Jul 15 7:20 PM — Jul 30 7:50 PM, Sandnessjøen, Weather by CustomWeather, © 2015

Note: Actual official high and low records may vary slightly from our data, if they occured in-between our weather recording intervals... More about our weather records

Advertising

Sandnessjøen weather history for previous 24 hours

 ConditionsComfort  
Time TempWeatherWind HumidityBarometerVisibility
7:50 PM
Thu, Jul 30
50 °FDrizzle. Broken clouds.8 mph94%29.56 "Hg6 mi
7:20 PM50 °FDrizzle. Broken clouds.6 mph94%29.56 "Hg6 mi
6:50 PM50 °FDrizzle. Broken clouds.7 mph100%29.53 "Hg6 mi
6:20 PM50 °FDrizzle. Broken clouds.10 mph94%29.53 "Hg6 mi
5:50 PM50 °FDrizzle. Broken clouds.10 mph100%29.53 "Hg3 mi
5:20 PM50 °FDrizzle. Broken clouds.9 mph94%29.53 "Hg4 mi
4:50 PM50 °FDrizzle. Broken clouds.9 mph94%29.53 "Hg3 mi
4:20 PM50 °FDrizzle. Broken clouds.9 mph94%29.53 "Hg3 mi
3:20 PM50 °FDrizzle. Broken clouds.7 mph94%29.53 "Hg3 mi
2:50 PM50 °FDrizzle. Broken clouds.8 mph94%29.53 "Hg4 mi
2:20 PM50 °FDrizzle. Broken clouds.8 mph100%29.53 "Hg4 mi
1:50 PM50 °FDrizzle. Partly sunny.8 mph100%29.53 "Hg5 mi
1:20 PM52 °FDrizzle. Partly sunny.8 mph94%29.53 "Hg5 mi
12:50 PM52 °FLight rain. Partly sunny.8 mph94%29.53 "HgN/A
12:20 PM52 °FLight rain. Partly sunny.9 mph94%29.53 "HgN/A
11:50 AM52 °FLight rain. Partly sunny.10 mph94%29.53 "HgN/A
11:20 AM52 °FLight rain. Partly sunny.10 mph94%29.53 "HgN/A
10:50 AM52 °FLight rain. Partly sunny.8 mph94%29.53 "HgN/A
10:20 AM52 °FDrizzle. Partly sunny.7 mph94%29.53 "HgN/A
9:50 AM52 °FDrizzle. Broken clouds.5 mph94%29.53 "HgN/A
9:20 AM52 °FDrizzle. Broken clouds.7 mph94%29.53 "HgN/A
8:50 AM52 °FDrizzle. Broken clouds.8 mph94%29.53 "HgN/A
8:20 AM52 °FDrizzle. Broken clouds.8 mph94%29.56 "HgN/A
7:20 AM52 °FDrizzle. Broken clouds.6 mph94%29.56 "HgN/A
6:50 AM52 °FDrizzle. Broken clouds.5 mph94%29.56 "HgN/A
6:20 AM52 °FDrizzle. Broken clouds.7 mph94%29.56 "HgN/A
5:50 AM52 °FDrizzle. Broken clouds.9 mph94%29.56 "HgN/A
5:20 AM52 °FDrizzle. Broken clouds.9 mph94%29.59 "Hg6 mi
4:50 AM52 °FDrizzle. Broken clouds.8 mph94%29.59 "Hg6 mi
10:20 PM
Wed, Jul 29
54 °FScattered clouds.9 mph88%29.59 "HgN/A
9:50 PM55 °FScattered clouds.8 mph82%29.59 "HgN/A
9:20 PM55 °FPassing clouds.9 mph77%29.59 "HgN/A
Weather by CustomWeather, © 2015

See weather overviewHow to use our weather pages